Portada
METAR-TAF:

METAR-TAF

Aeroports :

Pocono Mountains Municipal Airport

Mount Pocono, Pennsilvània, Estats Units d'Amèrica

latitud: 41-08-20N, longitud: 075-23-46W, altitud: 584 m

Observació

L'informe es va fer fa 16 minuts, a les 23:53 UTC
Vent 14 kt del Nord-Oest
Temperatura 4°C
Humitat 75%
Pressió 1005 hPa
Visibilitat: 16.1 km
Cel ennuvolat a una alçada de 4100 ft
Cel cobert a una alçada de 7000 ft

METAR: KMPO 152353Z AUTO 31014KT 10SM BKN041 OVC070 04/00 A2968 RMK AO2 SLP059 60001 T00440000 10089 20044 53014

Hora: 20:09 (00:09 UTC)


TAF: manca

Observacions i pronòstics meteorològics de més de 4000 aeroports (METAR i TAF).

Les estacions disponibles són els punts grocs i vermells al mapa.

Posi el ratolí al punt desitjat per veure el nom de l'estació.

Feu clic per veure les observacions i els pronòstics meteorològics.

Per canviar el mapa: feu clic els botons verds amb una creu de color negre per apropar; al botó verd amb un guió per allunyar la imatge; o en les fletxes verdes per a mapes adjacents.


METAR-TAF: